Weather History for Vidalia, GA

Change the Weather History Date:

Saturday, November 12, 2011

  Actual Average (KAZE) Record (KAZE)
Temperature  
Mean Temperature 48 °F -  
Max Temperature 64 °F 71 °F 95 °F (2013)
Min Temperature 32 °F 43 °F 47 °F (2013)
Degree Days  
Heating Degree Days 17    
Moisture  
Dew Point 27 °F    
Average Humidity 53    
Maximum Humidity 93    
Minimum Humidity 18    
Precipitation  
Precipitation 0.00 in - - ()
Sea Level Pressure  
Sea Level Pressure 30.29 in    
Wind  
Wind Speed 1 mph (SSE)    
Max Wind Speed 7 mph    
Max Gust Speed -    
Visibility 10 miles    
Events      
Averages and records for this station are not official NWS values.
T = Trace of Precipitation, MM = Missing Value Source: NWS Daily Summary

Daily Weather History Graph

Daily Weather History Graph

Search for Another Location

Airport:

Trip Planner

Search our weather history database for the weather conditions in past years. The results will help you decide how hot, cold, wet, or windy it might be!

Date:

Astronomy

Nov. 12, 2011 Rise Set
Actual Time 6:55 AM EST 5:31 PM EST
Civil Twilight 6:29 AM EST 5:57 PM EST
Nautical Twilight 6:00 AM EST 6:26 PM EST
Astronomical Twilight 5:31 AM EST 6:55 PM EST
Moon 6:52 PM EST (11/12) 8:30 AM EST (11/12)
Length of Visible Light 11h 27m
Length of Day
10h 35m
Full, 97% of the Moon is Illuminated
Nov 12
Full
Nov 18
Last Quarter
Nov 25
New
Dec 2
First Quarter
Dec 10
Full

Hourly Weather History & Observations

Time (EST) Temp. Windchill Dew Point Humidity Pressure Visibility Wind Dir Wind Speed Gust Speed Precip Events Conditions
12:15 AM 33.8 °F - 30.2 °F 87% 30.25 in 10.0 mi Calm Calm - N/A   Clear
12:35 AM 33.8 °F - 28.4 °F 81% 30.25 in 10.0 mi Calm Calm - N/A   Clear
12:55 AM 33.8 °F - 28.4 °F 81% 30.25 in 10.0 mi Calm Calm - N/A   Clear
1:15 AM 32.0 °F - 30.2 °F 93% 30.25 in 10.0 mi Calm Calm - N/A   Clear
1:35 AM 32.0 °F - 30.2 °F 93% 30.25 in 10.0 mi Calm Calm - N/A   Clear
1:55 AM 32.0 °F - 30.2 °F 93% 30.25 in 10.0 mi Calm Calm - N/A   Clear
2:15 AM 32.0 °F - 30.2 °F 93% 30.25 in 10.0 mi Calm Calm - N/A   Clear
2:35 AM 32.0 °F - 30.2 °F 93% 30.25 in 10.0 mi Calm Calm - N/A   Clear
2:55 AM 32.0 °F - 30.2 °F 93% 30.26 in 10.0 mi Calm Calm - N/A   Clear
3:15 AM 32.0 °F - 30.2 °F 93% 30.26 in 10.0 mi Calm Calm - N/A   Clear
3:35 AM 32.0 °F - 28.4 °F 87% 30.26 in 10.0 mi Calm Calm - N/A   Clear
3:55 AM 32.0 °F - 28.4 °F 87% 30.27 in 10.0 mi Calm Calm - N/A   Clear
4:15 AM 32.0 °F - 28.4 °F 87% 30.27 in 10.0 mi Calm Calm - N/A   Clear
4:35 AM 32.0 °F - 28.4 °F 87% 30.27 in 10.0 mi Calm Calm - N/A   Clear
4:55 AM 32.0 °F - 28.4 °F 87% 30.28 in 10.0 mi Calm Calm - N/A   Clear
5:15 AM 32.0 °F - 28.4 °F 87% 30.28 in 10.0 mi Calm Calm - N/A   Clear
5:35 AM 32.0 °F - 28.4 °F 87% 30.29 in 10.0 mi Calm Calm - N/A   Clear
6:15 AM 32.0 °F - 28.4 °F 87% 30.30 in 10.0 mi Calm Calm - N/A   Clear
6:35 AM 32.0 °F - 28.4 °F 87% 30.31 in 10.0 mi Calm Calm - N/A   Clear
7:55 AM 33.8 °F - 32.0 °F 93% 30.34 in 10.0 mi Calm Calm - N/A   Clear
8:15 AM 41.0 °F - 33.8 °F 76% 30.34 in 10.0 mi Calm Calm - N/A   Clear
8:35 AM 42.8 °F - 33.8 °F 70% 30.34 in 10.0 mi Calm Calm - N/A   Clear
8:55 AM 46.4 °F - 30.2 °F 53% 30.35 in 10.0 mi Calm Calm - N/A   Clear
9:15 AM 50.0 °F - 26.6 °F 40% 30.36 in 10.0 mi SW 3.5 mph - N/A   Clear
9:35 AM 51.8 °F - 28.4 °F 41% 30.36 in 10.0 mi Calm Calm - N/A   Clear
9:55 AM 53.6 °F - 26.6 °F 35% 30.36 in 10.0 mi SSW 4.6 mph - N/A   Clear
10:15 AM 55.4 °F - 24.8 °F 31% 30.37 in 10.0 mi South 3.5 mph - N/A   Clear
10:35 AM 57.2 °F - 26.6 °F 31% 30.37 in 10.0 mi SW 4.6 mph - N/A   Clear
10:55 AM 59.0 °F - 23.0 °F 25% 30.36 in 10.0 mi SE 3.5 mph - N/A   Clear
11:15 AM 59.0 °F - 21.2 °F 23% 30.36 in 10.0 mi Calm Calm - N/A   Clear
11:35 AM 60.8 °F - 23.0 °F 23% 30.35 in 10.0 mi SE 3.5 mph - N/A   Clear
11:55 AM 60.8 °F - 21.2 °F 22% 30.33 in 10.0 mi Calm Calm - N/A   Clear
12:15 PM 60.8 °F - 21.2 °F 22% 30.33 in 10.0 mi SSE 4.6 mph - N/A   Clear
12:35 PM 60.8 °F - 21.2 °F 22% 30.31 in 10.0 mi Calm Calm - N/A   Clear
12:55 PM 62.6 °F - 21.2 °F 20% 30.30 in 10.0 mi East 4.6 mph - N/A   Clear
1:15 PM 62.6 °F - 21.2 °F 20% 30.30 in 10.0 mi SW 3.5 mph - N/A   Clear
1:35 PM 62.6 °F - 21.2 °F 20% 30.29 in 10.0 mi SSE 6.9 mph - N/A   Clear
1:55 PM 62.6 °F - 21.2 °F 20% 30.29 in 10.0 mi Calm Calm - N/A   Clear
2:15 PM 64.4 °F - 21.2 °F 19% 30.28 in 10.0 mi Calm Calm - N/A   Clear
2:35 PM 64.4 °F - 21.2 °F 19% 30.28 in 10.0 mi Calm Calm - N/A   Clear
2:55 PM 64.4 °F - 21.2 °F 19% 30.27 in 10.0 mi Calm Calm - N/A   Clear
3:15 PM 64.4 °F - 19.4 °F 18% 30.27 in 10.0 mi Calm Calm - N/A   Clear
3:35 PM 64.4 °F - 19.4 °F 18% 30.27 in 10.0 mi SE 3.5 mph - N/A   Clear
3:55 PM 64.4 °F - 19.4 °F 18% 30.27 in 10.0 mi Calm Calm - N/A   Clear
4:15 PM 64.4 °F - 21.2 °F 19% 30.28 in 10.0 mi Calm Calm - N/A   Clear
4:35 PM 62.6 °F - 23.0 °F 22% 30.27 in 10.0 mi SSE 3.5 mph - N/A   Clear
4:55 PM 60.8 °F - 26.6 °F 27% 30.27 in 10.0 mi Calm Calm - N/A   Clear
5:15 PM 57.2 °F - 30.2 °F 36% 30.27 in 10.0 mi Calm Calm - N/A   Clear
5:35 PM 55.4 °F - 32.0 °F 41% 30.27 in 10.0 mi Calm Calm - N/A   Clear
5:55 PM 53.6 °F - 30.2 °F 41% 30.27 in 10.0 mi Calm Calm - N/A   Clear
6:15 PM 51.8 °F - 30.2 °F 44% 30.28 in 10.0 mi Calm Calm - N/A   Clear
6:35 PM 50.0 °F - 30.2 °F 47% 30.28 in 10.0 mi Calm Calm - N/A   Clear
7:15 PM 50.0 °F - 30.2 °F 47% 30.29 in 10.0 mi Calm Calm - N/A   Clear
7:35 PM 48.2 °F - 32.0 °F 54% 30.28 in 10.0 mi SSE 3.5 mph - N/A   Clear
7:55 PM 50.0 °F - 30.2 °F 47% 30.29 in 10.0 mi Calm Calm - N/A   Clear
8:15 PM 46.4 °F - 30.2 °F 53% 30.29 in 10.0 mi Calm Calm - N/A   Clear
8:35 PM 44.6 °F - 30.2 °F 57% 30.28 in 10.0 mi Calm Calm - N/A   Clear
8:55 PM 46.4 °F - 30.2 °F 53% 30.29 in 10.0 mi Calm Calm - N/A   Clear
9:15 PM 44.6 °F 42.2 °F 32.0 °F 61% 30.29 in 10.0 mi SE 4.6 mph - N/A   Clear
9:35 PM 50.0 °F - 32.0 °F 50% 30.30 in 10.0 mi SSE 5.8 mph - N/A   Clear
9:55 PM 50.0 °F - 33.8 °F 54% 30.30 in 10.0 mi SSE 4.6 mph - N/A   Clear
10:15 PM 50.0 °F - 35.6 °F 58% 30.30 in 10.0 mi SSE 4.6 mph - N/A   Clear
10:35 PM 48.2 °F - 35.6 °F 62% 30.29 in 10.0 mi SSE 4.6 mph - N/A   Clear
10:55 PM 48.2 °F - 37.4 °F 66% 30.29 in 10.0 mi SSE 3.5 mph - N/A   Clear
11:15 PM 46.4 °F 44.3 °F 37.4 °F 71% 30.28 in 10.0 mi SSE 4.6 mph - N/A   Clear
11:35 PM 48.2 °F - 37.4 °F 66% 30.28 in 10.0 mi Calm Calm - N/A   Clear
11:55 PM 46.4 °F 45.2 °F 37.4 °F 71% 30.26 in 10.0 mi SSE 3.5 mph - N/A   Clear